Find Starlink 37170

NORAD ID: 68614 Int'l Des: 2026-073 Owner: SPXS Country: US Constellation: starlink operational
LEOCIRCULARRETROGRADE

当前视图

正在加载3D地球...

About Starlink 37170

Starlink 37170 (NORAD 68614) is a starlink constellation satellite (v2 mini) launched Apr 7, 2026 by SPXS of US. It operates in LEO, CIRCULAR, RETROGRADE orbit with a mass of 575.00 kg.

即将过境

Passes for default location (London). Set your location on the main map for personalized predictions.

高度历史

Loading altitude history...

两行轨道根数

1 68614U 26073N 26237.08820137 .00017897 00000-0 55561-3 0 9999
2 68614 97.2862 75.4869 0001643 90.9207 269.2224 15.33431322 21693
Epoch: Aug 25, 2026 • Age: 29 hours

当前状态

高度 467.7 km
远地点 / 近地点 N/A
速度 7.63 km/s
星下点 9.37°N, 177.61°E
发射日期 Apr 7, 2026
运行时间 0.3 years
类型 internet

技术详情

分类 Payload
质量 575.00 kg
干质量 530.00 kg
总质量 575.00 kg
长度 0.30 m
直径 4.10 m
跨度 29.00 m
形状 Box + pan
制造商 SPXS
平台类型 Starlink V2MO
阶段状态 In Orbit
所有者/国家 SPXS/US

Most Searched